Prairie Du Chien, WI

7:20 AM CDT on September 26, 2017 (GMT -0500)
Prairie Du Chien Municipal

Weather History for KPDC - April, 2013

Change the Weather History Date:

Friday, April 12, 2013

  Actual Average Record
Temperature  
Mean Temperature 36 °F -  
Max Temperature 37 °F 59 °F 84 °F (1977)
Min Temperature 34 °F 36 °F 22 °F (1957)
Degree Days  
Heating Degree Days 30    
Moisture  
Dew Point 31 °F    
Average Humidity 82    
Maximum Humidity 96    
Minimum Humidity 66    
Precipitation  
Precipitation 0.04 in - - ()
Sea Level Pressure  
Sea Level Pressure 29.68 in    
Wind  
Wind Speed 8 mph (West)    
Max Wind Speed 18 mph    
Max Gust Speed 24 mph    
Visibility 8 miles    
Events Rain    
Averages and records for this station are not official NWS values.
T = Trace of Precipitation, MM = Missing Value Source: NWS Daily Summary

Daily Weather History Graph

Daily Weather History Graph

Search for Another Location

Airport or City:

Trip Planner

Search our weather history database for the weather conditions in past years. The results will help you decide how hot, cold, wet, or windy it might be!

Date:

Astronomy

Apr. 12, 2013 Rise Set
Actual Time 6:27 AM CDT 7:43 PM CDT
Civil Twilight 5:57 AM CDT 8:13 PM CDT
Nautical Twilight 5:22 AM CDT 8:48 PM CDT
Astronomical Twilight 4:45 AM CDT 9:25 PM CDT
Moon 7:33 AM CDT (4/12) 10:18 PM CDT (4/12)
Length of Visible Light 14h 15m
Length of Day
13h 16m
Waxing Crescent, 5% of the Moon is Illuminated
Apr 12
Waxing Crescent
Apr 18
First Quarter
Apr 25
Full
May 2
Last Quarter
May 9
New

Hourly Weather History & Observations

Time (CDT) Temp. Windchill Dew Point Humidity Pressure Visibility Wind Dir Wind Speed Gust Speed Precip Events Conditions
12:15 AM 36.7 °F 32.0 °F 34.7 °F 93% 29.57 in 3.0 mi East 5.8 mph - N/A   Light Drizzle
12:35 AM 36.7 °F 32.9 °F 34.9 °F 93% 29.57 in 5.0 mi ESE 4.6 mph - N/A   Overcast
12:55 AM 36.5 °F 32.7 °F 35.1 °F 95% 29.57 in 4.0 mi East 4.6 mph - 0.01 in   Overcast
1:15 AM 36.5 °F 31.8 °F 34.9 °F 94% 29.57 in 4.0 mi East 5.8 mph - N/A   Overcast
1:35 AM 36.5 °F 31.8 °F 34.9 °F 94% 29.57 in 2.0 mi East 5.8 mph - N/A   Light Drizzle
1:55 AM 36.1 °F 33.5 °F 34.9 °F 95% 29.56 in 2.5 mi ESE 3.5 mph - N/A   Drizzle
2:15 AM 36.1 °F 30.6 °F 34.7 °F 94% 29.56 in 3.0 mi East 6.9 mph - N/A   Drizzle
2:35 AM 36.1 °F 31.4 °F 34.7 °F 94% 29.56 in 3.0 mi East 5.8 mph - 0.01 in Rain Light Rain
2:55 AM 36.0 °F 29.0 °F 34.7 °F 95% 29.55 in 5.0 mi East 9.2 mph - 0.01 in   Drizzle
3:15 AM 36.0 °F 29.6 °F 34.2 °F 93% 29.55 in 7.0 mi East 8.1 mph - N/A Rain Light Rain
3:35 AM 36.0 °F - 34.2 °F 93% 29.54 in 10.0 mi Calm Calm - N/A   Light Drizzle
3:55 AM 36.1 °F - 34.5 °F 94% 29.55 in 10.0 mi Calm Calm - N/A   Light Drizzle
4:15 AM 36.5 °F 33.9 °F 34.7 °F 93% 29.55 in 10.0 mi South 3.5 mph - N/A Rain Light Rain
4:35 AM 36.1 °F 33.5 °F 34.7 °F 94% 29.55 in 10.0 mi SSW 3.5 mph - 0.01 in Rain Light Rain
4:55 AM 36.0 °F 32.1 °F 34.5 °F 94% 29.55 in 7.0 mi West 4.6 mph - 0.01 in Rain Light Rain
5:15 AM 35.6 °F 30.7 °F 34.0 °F 94% 29.55 in 7.0 mi West 5.8 mph - N/A Rain Light Rain
5:35 AM 34.7 °F 28.8 °F 33.6 °F 96% 29.55 in 7.0 mi WNW 6.9 mph - N/A Rain Light Rain
5:55 AM 34.7 °F 29.6 °F 33.3 °F 94% 29.55 in 7.0 mi WNW 5.8 mph - N/A Rain Light Rain
6:15 AM 34.7 °F 30.6 °F 33.3 °F 94% 29.55 in 7.0 mi NW 4.6 mph - N/A   Overcast
6:35 AM 34.5 °F 30.4 °F 33.1 °F 94% 29.56 in 10.0 mi NNW 4.6 mph - N/A   Light Drizzle
6:55 AM 34.7 °F 31.8 °F 33.1 °F 94% 29.56 in 10.0 mi NW 3.5 mph - 0.01 in   Overcast
7:15 AM 34.7 °F 31.8 °F 32.9 °F 93% 29.57 in 7.0 mi NW 3.5 mph - N/A   Light Drizzle
7:35 AM 34.7 °F 30.6 °F 32.9 °F 93% 29.58 in 5.0 mi NW 4.6 mph - N/A Rain Light Rain
7:55 AM 34.7 °F 28.1 °F 32.9 °F 93% 29.59 in 4.0 mi NW 8.1 mph - N/A Rain Rain
8:15 AM 34.5 °F 27.3 °F 32.9 °F 94% 29.59 in 3.0 mi NNW 9.2 mph - N/A   Light Drizzle
8:35 AM 34.5 °F 27.3 °F 32.4 °F 92% 29.60 in 5.0 mi NW 9.2 mph - N/A   Overcast
8:55 AM 34.3 °F 28.4 °F 32.0 °F 91% 29.61 in 10.0 mi NW 6.9 mph - N/A   Overcast
9:15 AM 34.2 °F 27.5 °F 32.0 °F 92% 29.62 in 7.0 mi WNW 8.1 mph - N/A   Overcast
9:55 AM 34.5 °F 27.9 °F 32.0 °F 90% 29.62 in 10.0 mi WNW 8.1 mph - N/A   Overcast
10:15 AM 34.7 °F 30.6 °F 32.0 °F 90% 29.63 in 10.0 mi NNW 4.6 mph - N/A   Overcast
10:35 AM 34.7 °F 29.6 °F 32.0 °F 90% 29.64 in 10.0 mi NW 5.8 mph - N/A   Overcast
10:55 AM 35.4 °F 29.0 °F 32.0 °F 87% 29.65 in 10.0 mi WNW 8.1 mph - N/A   Overcast
11:15 AM 35.6 °F 27.5 °F 32.0 °F 87% 29.65 in 10.0 mi West 11.5 mph - N/A   Overcast
11:35 AM 36.3 °F 27.5 °F 31.5 °F 83% 29.65 in 10.0 mi WNW 13.8 mph 17.3 mph N/A   Overcast
11:55 AM 36.1 °F 27.7 °F 31.1 °F 82% 29.67 in 10.0 mi WNW 12.7 mph - N/A   Overcast
12:15 PM 36.1 °F 27.7 °F 30.4 °F 80% 29.68 in 10.0 mi West 12.7 mph - N/A   Overcast
12:35 PM 36.1 °F 27.3 °F 29.7 °F 77% 29.68 in 10.0 mi West 13.8 mph 20.7 mph N/A   Overcast
12:55 PM 36.1 °F 26.9 °F 29.3 °F 76% 29.69 in 10.0 mi West 15.0 mph - N/A   Overcast
1:15 PM 36.5 °F 26.7 °F 29.3 °F 75% 29.70 in 10.0 mi WNW 17.3 mph 21.9 mph N/A   Overcast
1:35 PM 36.5 °F 28.2 °F 29.8 °F 77% 29.71 in 10.0 mi West 12.7 mph 18.4 mph N/A   Overcast
1:55 PM 36.7 °F 28.4 °F 28.6 °F 72% 29.71 in 10.0 mi West 12.7 mph 20.7 mph N/A   Overcast
2:15 PM 36.5 °F 27.0 °F 28.8 °F 74% 29.72 in 10.0 mi WNW 16.1 mph - N/A   Overcast
2:35 PM 36.7 °F 26.9 °F 28.2 °F 71% 29.73 in 10.0 mi West 17.3 mph 21.9 mph N/A   Overcast
2:55 PM 36.7 °F 28.0 °F 28.0 °F 71% 29.74 in 10.0 mi West 13.8 mph - N/A   Overcast
3:15 PM 36.7 °F 27.6 °F 27.5 °F 69% 29.75 in 10.0 mi WNW 15.0 mph - N/A   Overcast
3:35 PM 36.5 °F 27.0 °F 28.0 °F 71% 29.75 in 10.0 mi West 16.1 mph 21.9 mph N/A   Overcast
3:55 PM 36.0 °F 28.0 °F 27.7 °F 72% 29.76 in 10.0 mi West 11.5 mph - N/A   Overcast
4:15 PM 36.7 °F 28.0 °F 28.2 °F 71% 29.76 in 10.0 mi West 13.8 mph 21.9 mph N/A   Overcast
4:35 PM 37.2 °F 29.1 °F 28.0 °F 69% 29.76 in 10.0 mi West 12.7 mph 19.6 mph N/A   Overcast
4:55 PM 37.4 °F 28.5 °F 27.0 °F 66% 29.76 in 10.0 mi West 15.0 mph 24.2 mph N/A   Overcast
5:15 PM 37.0 °F 28.1 °F 26.8 °F 66% 29.77 in 10.0 mi West 15.0 mph - N/A   Overcast
5:35 PM 36.9 °F 30.1 °F 27.3 °F 68% 29.78 in 10.0 mi West 9.2 mph - N/A   Overcast
5:55 PM 36.7 °F 26.6 °F 27.1 °F 68% 29.79 in 10.0 mi West 18.4 mph 21.9 mph N/A   Overcast
6:15 PM 36.5 °F 28.7 °F 27.1 °F 69% 29.79 in 10.0 mi West 11.5 mph 16.1 mph N/A   Overcast
6:35 PM 36.0 °F 28.0 °F 27.0 °F 70% 29.80 in 10.0 mi West 11.5 mph 17.3 mph N/A   Overcast
6:55 PM 35.8 °F 28.8 °F 27.3 °F 71% 29.80 in 10.0 mi West 9.2 mph - N/A   Overcast
7:15 PM 36.0 °F 28.0 °F 26.6 °F 69% 29.80 in 10.0 mi West 11.5 mph 21.9 mph N/A   Overcast
7:35 PM 35.6 °F 27.1 °F 26.8 °F 70% 29.80 in 10.0 mi West 12.7 mph 17.3 mph N/A   Overcast
7:55 PM 35.6 °F 27.1 °F 27.1 °F 71% 29.80 in 10.0 mi West 12.7 mph - N/A   Overcast
8:15 PM 35.2 °F 28.1 °F 27.3 °F 73% 29.81 in 10.0 mi West 9.2 mph 16.1 mph N/A   Overcast
8:35 PM 35.2 °F 27.6 °F 27.3 °F 73% 29.81 in 10.0 mi West 10.4 mph - N/A   Overcast
8:55 PM 35.1 °F 27.9 °F 27.5 °F 74% 29.82 in 10.0 mi West 9.2 mph 16.1 mph N/A   Overcast
9:15 PM 35.1 °F 27.4 °F 27.1 °F 73% 29.82 in 10.0 mi WSW 10.4 mph - N/A   Overcast
9:35 PM 34.9 °F 26.6 °F 27.5 °F 74% 29.83 in 10.0 mi West 11.5 mph 16.1 mph N/A   Overcast
9:55 PM 34.9 °F 27.7 °F 27.5 °F 74% 29.83 in 10.0 mi WSW 9.2 mph 17.3 mph N/A   Overcast
10:15 PM 34.7 °F 25.9 °F 27.7 °F 76% 29.84 in 10.0 mi WSW 12.7 mph 17.3 mph N/A   Overcast
10:35 PM 34.7 °F 26.4 °F 27.9 °F 76% 29.84 in 10.0 mi West 11.5 mph - N/A   Overcast
10:55 PM 34.7 °F 28.1 °F 28.0 °F 77% 29.83 in 10.0 mi West 8.1 mph - N/A   Overcast
11:15 PM 34.7 °F 29.6 °F 28.4 °F 78% 29.83 in 10.0 mi West 5.8 mph - N/A   Overcast
11:35 PM 34.7 °F 25.9 °F 28.0 °F 77% 29.83 in 10.0 mi West 12.7 mph - N/A   Overcast
11:55 PM 34.7 °F 26.9 °F 27.5 °F 75% 29.84 in 10.0 mi West 10.4 mph 17.3 mph N/A   Light Drizzle